Regional Weather Roundup
Issued by NWS

Home | Current Version | Previous Version | Text Only | Print | Product List | Glossary On
Versions: 1 2 3 4 5 6 7 8 9 10 11 12 13 14 15 16 17 18 19 20 21 22 23 24 25 26 27 28 29 30 31 32 33 34 35 36 37 38 39 40 41 42 43 44 45 46 47 48 49 50
000
ASUS44 KLUB 210201
RWRTX
WEST TEXAS WEATHER ROUNDUP
NATIONAL WEATHER SERVICE LUBBOCK TX
900 PM CDT MON OCT 20 2014

NOTE: "FAIR" INDICATES FEW OR NO CLOUDS BELOW 12,000 FEET WITH NO
SIGNIFICANT WEATHER AND/OR OBSTRUCTIONS TO VISIBILITY.

TXZ004-006>008-010-012-014-016-OKZ002-210300-
TEXAS PANHANDLE/OKLAHOMA PANHANDLE

CITY           SKY/WX    TMP DP  RH WIND       PRES   REMARKS
AMARILLO       MOCLDY    66  54  65 SE3       30.11R
BORGER         PTCLDY    70  50  49 SE5       30.09R
CANADIAN       CLEAR     65  56  72 CALM      30.05S
DALHART        CLEAR     61  48  62 E7        30.13R
DUMAS          CLEAR     60  47  61 E7        30.11S
GUYMON         CLEAR     67  55  65 E10       30.09R
HEREFORD       CLOUDY    62  55  76 S6        30.12S
PAMPA          PTCLDY    60  52  73 E6        30.10S
$$

TXZ026-029-035-045-048-210300-
SOUTHERN PANHANDLE/SOUTH PLAINS/ROLLING PLAINS

CITY           SKY/WX    TMP DP  RH WIND       PRES   REMARKS
CHILDRESS      PTCLDY    70  54  56 S8        30.04R
LUBBOCK        PTCLDY    64  53  67 S8        30.09R
SNYDER         PTCLDY    68  53  59 SE6       30.08R
$$

TXZ052-054-060>062-072-078-127-140-154-169-210300-
PERMIAN BASIN/CONCHO VALLEY/BIG COUNTRY/EDWARDS PLATEAU

CITY           SKY/WX    TMP DP  RH WIND       PRES   REMARKS
ABILENE        CLEAR     67  54  63 SE5       30.06R
BIG SPRING     MOCLDY    69  52  54 E6        30.08R
JUNCTION       CLEAR     68  55  63 E5        30.04R
MIDLAND        CLOUDY    70  50  49 E6        30.06R
ODESSA         CLOUDY    70  52  52 SE5       30.07R
SAN ANGELO     PTCLDY    67  52  58 E6        30.04R
SONORA         CLEAR     72  50  46 NE5       30.09R
WINK           CLOUDY    67  65  93 CALM      30.05R
$$

TXZ055-058-074-075-080-082-210300-
FAR WEST/SOUTHWEST MOUNTAINS/TRANS PECOS

CITY           SKY/WX    TMP DP  RH WIND       PRES   REMARKS
ALPINE         MOCLDY    60  57  91 E5        30.18R
DRYDEN           N/A     67  61  81 E5        30.03R
EL PASO        CLOUDY    65  54  67 S9        30.06R
FORT STOCKTON  MOCLDY    64  60  87 S5        30.07R
MARFA          PTCLDY    55  54  94 NE8       30.13S
PRESIDIO       FAIR      67  57  70 N14       30.00R
$$

TXZ014-016-019-021>030-083-210300
TEXAS TECH WEST TEXAS MESONET/TEXAS PANHANDLE/NORTHERN SOUTH PLAINS

CITY           SKY/WX    TMP DP  RH WIND       PRES   REMARKS
ABERNATHY 5ENE   N/A     58  52  81 S8        30.11R
AMARILLO 9NNE    N/A     64  51  62 S2        30.10R
AMARILLO 7SSE    N/A     59  50  72 S2        30.12R
AMHERST 1NE      N/A     60  53  76 SE1       30.12R
BOOTLEG 11WNW  LGT RAIN  58  52  81 S12       30.16S
CANADIAN 6E      N/A     64  57  78 NE10      30.04S
$$

TXZ033>036-039>041-045>048-210300
TEXAS TECH WEST TEXAS MESONET/SOUTH PLAINS

CITY           SKY/WX    TMP DP  RH WIND       PRES   REMARKS
AIKEN 3WSW       N/A     62  54  75 S7        30.11R
ANDREWS 2NE      N/A     68  51  54 E3        30.08R
ANTON 6SSW       N/A     61  53  76 SE5       30.10S
$$

TXZ031-032-036>038-042>044-210300-
TEXAS TECH WEST TEXAS MESONET/ROLLING PLAINS

CITY           SKY/WX    TMP DP  RH WIND       PRES   REMARKS
$$

TXZ052-054-060>062-072-078-127-140-154-169-210300-
TEXAS TECH WEST TEXAS MESONET/PERMIAN BASIN/
CONCHO VALLEY/BIG COUNTRY/EDWARDS PLATEAU

CITY           SKY/WX    TMP DP  RH WIND       PRES   REMARKS
$$

TXZ055-058-074-075-080-082-210300-
TEXAS TECH WEST TEXAS MESONET/FAR WEST/SOUTHWEST MOUNTAINS/TRANS PECOS

CITY           SKY/WX    TMP DP  RH WIND       PRES   REMARKS
PRSMN GAP BBNP   N/A     68  61  79 N16       30.01S
$$



USA.gov is the U.S. government's official web portal to all federal, state and local government web resources and services.